EW4164 Weather Reports


Display with metric or nautical units.
time (UTC)temp
F
wind
direction
speed
MPH
gust
MPH
rain 1hr
in
rain 24hr
in
rain mn
in
humidity
%
barometer
mb
20260504192220 61 188 1.0 3.0 0.00 0.00 0.00 68 1013.0
20260504191603 61 256 0.0 4.0 0.00 0.00 0.00 68 1013.1
20260504191229 62 259 1.0 3.0 0.00 0.00 0.00 68 1013.1
20260504190222 62 250 1.0 5.0 0.00 0.00 0.00 67 1013.0
20260504190016 61 219 1.0 3.0 0.00 0.00 0.00 67 1013.0
20260504184513 62 217 1.0 5.0 0.00 0.00 0.00 66 1013.1
20260504184220 63 225 2.0 4.0 0.00 0.00 0.00 66 1013.0
20260504183136 62 204 1.0 5.0 0.00 0.00 0.00 64 1013.1
20260504182211 63 259 2.0 3.0 0.00 0.00 0.00 65 1013.1
20260504181517 63 211 0.0 4.0 0.00 0.00 0.00 65 1013.2
20260504181220 63 201 2.0 4.0 0.00 0.00 0.00 65 1013.1
20260504180206 64 267 1.0 4.0 0.00 0.00 0.00 64 1013.1
20260504180008 63 267 1.0 5.0 0.00 0.00 0.00 64 1013.2
20260504174523 63 219 1.0 5.0 0.00 0.00 0.00 63 1013.2
20260504174240 64 221 2.0 5.0 0.00 0.00 0.00 63 1013.2
20260504173226 64 218 2.0 4.0 0.00 0.00 0.00 63 1013.1
20260504173013 64 240 1.0 5.0 0.00 0.00 0.00 63 1013.2
20260504172216 64 223 2.0 4.0 0.00 0.00 0.00 62 1013.1
20260504171523 64 232 1.0 4.0 0.00 0.00 0.00 61 1013.1
20260504171212 64 219 1.0 5.0 0.00 0.00 0.00 61 1013.1
20260504170221 65 228 2.0 5.0 0.00 0.00 0.00 61 1013.1
20260504160224 66 216 2.0 7.0 0.00 0.00 0.00 58 1013.0
20260504150220 68 214 2.0 6.0 0.00 0.00 0.00 55 1013.0
20260504120222 69 209 2.0 8.0 0.00 0.00 0.00 55 1013.9
20260504100214 66 262 3.0 10.0 0.00 0.00 0.00 60 1014.7
20260504100112 66 183 2.0 8.0 0.00 0.00 0.00 61 1014.7
20260504090105 65 35 1.0 5.0 0.00 0.00 0.00 60 1014.7
20260504081546 64 96 1.0 5.0 0.00 0.00 0.00 63 1014.6
20260504080214 62 101 2.0 5.0 0.00 0.00 0.00 68 1014.8
20260504070216 60 150 2.0 3.0 0.00 0.00 0.00 68 1014.6
20260504060232 54 5 1.0 2.0 0.00 0.00 0.00 76 1014.5
20260504050221 50 219 1.0 2.0 0.00 0.00 0.00 81 1014.5
20260504050014 50 208 1.0 3.0 0.00 0.00 0.00 81 1014.5
20260504045226 50 218 0.0 1.0 0.00 0.00 0.00 82 1014.5
20260504044556 49 196 0.0 1.0 0.00 0.01 0.00 81 1014.4
20260504044215 50 196 1.0 2.0 0.00 0.00 0.00 81 1014.5
20260504043221 50 189 1.0 3.0 0.00 0.00 0.00 80 1014.5
20260504043037 49 188 0.0 2.0 0.00 0.01 0.00 80 1014.4
20260504041547 49 228 1.0 4.0 0.00 0.01 0.00 80 1014.4
20260504040211 49 221 2.0 3.0 0.00 0.01 0.00 81 1014.5
20260504040116 49 208 1.0 3.0 0.00 0.01 0.00 81 1014.5
20260504035222 49 213 1.0 2.0 0.00 0.01 0.00 81 1014.6
20260504034611 49 231 0.0 2.0 0.00 0.01 0.00 80 1014.5
20260504034233 50 222 0.0 2.0 0.00 0.01 0.00 80 1014.6
20260504033208 50 225 1.0 2.0 0.00 0.01 0.00 80 1014.7
20260504033041 49 225 0.0 2.0 0.00 0.01 0.00 80 1014.6
20260504032222 50 225 1.0 2.0 0.00 0.01 0.00 80 1014.7
20260504031531 50 237 0.0 2.0 0.00 0.01 0.00 80 1014.5
20260504031215 50 238 1.0 2.0 0.00 0.01 0.00 79 1014.7
20260504030224 51 206 1.0 2.0 0.00 0.01 0.00 79 1014.7
20260504030027 50 207 0.0 2.0 0.00 0.01 0.00 79 1014.6
20260504025212 51 179 1.0 2.0 0.00 0.01 0.00 78 1014.8
20260504024601 51 198 0.0 2.0 0.00 0.01 0.00 77 1014.6
20260504024213 51 217 1.0 3.0 0.00 0.01 0.00 77 1014.6
20260504023225 52 202 0.0 3.0 0.00 0.01 0.00 75 1014.6
20260504023049 51 196 0.0 3.0 0.00 0.01 0.00 75 1014.5
20260504022225 52 220 1.0 3.0 0.00 0.01 0.00 75 1014.6
20260504021559 52 251 0.0 3.0 0.00 0.01 0.00 75 1014.5
20260504020229 53 89 1.0 2.0 0.00 0.01 0.00 74 1014.6
20260504020015 52 51 1.0 3.0 0.00 0.01 0.00 74 1014.5
20260504015219 52 235 1.0 3.0 0.00 0.01 0.00 74 1014.6
20260504014513 52 246 1.0 3.0 0.00 0.01 0.00 75 1014.5
20260504014217 52 220 1.0 3.0 0.00 0.01 0.00 75 1014.7
20260504013224 52 213 1.0 1.0 0.00 0.01 0.00 75 1014.7
20260504013016 51 222 0.0 1.0 0.00 0.01 0.00 75 1014.6
20260504012222 52 196 1.0 2.0 0.00 0.01 0.00 75 1014.8
20260504011507 52 229 0.0 2.0 0.00 0.01 0.00 75 1014.6
20260504011228 53 238 1.0 2.0 0.00 0.01 0.00 74 1014.8
20260504010218 53 234 1.0 2.0 0.00 0.01 0.00 73 1014.7
20260504010013 53 238 0.0 2.0 0.00 0.01 0.00 73 1014.6
20260504004517 53 224 1.0 3.0 0.00 0.01 0.00 72 1014.6
20260504004232 54 290 1.0 3.0 0.00 0.01 0.00 71 1014.6
20260504003220 53 228 1.0 3.0 0.00 0.01 0.00 72 1014.7
20260504003055 53 221 1.0 3.0 0.00 0.01 0.00 72 1014.6
20260504002220 53 224 1.0 3.0 0.00 0.01 0.00 73 1014.8
20260504001603 52 217 0.0 1.0 0.00 0.01 0.00 74 1014.6
20260504001210 53 217 0.0 1.0 0.00 0.01 0.00 74 1014.7
20260504000010 53 217 0.0 1.0 0.00 0.01 0.00 74 1014.6
20260503235227 54 217 0.0 1.0 0.00 0.01 0.00 74 1014.7
20260503234531 54 217 0.0 1.0 0.00 0.01 0.00 74 1014.5
20260503234218 55 217 0.0 1.0 0.00 0.01 0.00 74 1014.7
20260503233218 56 217 0.0 1.0 0.00 0.01 0.00 73 1014.7
20260503233106 55 217 0.0 1.0 0.00 0.01 0.00 73 1014.5
20260503232217 56 217 0.0 2.0 0.00 0.01 0.00 71 1014.7
20260503231607 56 217 0.0 2.0 0.00 0.01 0.00 71 1014.6
20260503231225 57 210 0.0 2.0 0.00 0.01 0.00 69 1014.7
20260503230226 58 180 1.0 3.0 0.00 0.01 0.00 67 1014.7
20260503230045 58 190 0.0 2.0 0.00 0.01 0.00 66 1014.6
20260503225217 59 159 1.0 3.0 0.00 0.01 0.00 64 1014.7
20260503224559 59 231 0.0 2.0 0.00 0.01 0.00 63 1014.5
20260503224223 60 231 1.0 3.0 0.00 0.01 0.00 62 1014.6
20260503223218 61 84 1.0 4.0 0.00 0.01 0.00 59 1014.6
20260503223050 60 92 1.0 3.0 0.00 0.01 0.00 58 1014.5
20260503222213 61 182 1.0 4.0 0.00 0.01 0.00 57 1014.7
20260503221603 61 112 1.0 3.0 0.00 0.01 0.00 53 1014.5
20260503220226 62 247 2.0 8.0 0.00 0.01 0.01 52 1014.6
20260503220052 61 227 1.0 7.0 0.00 0.01 0.00 52 1014.4
20260503215232 62 248 3.0 7.0 0.00 0.01 0.01 53 1014.5
20260503214522 62 227 1.0 6.0 0.00 0.01 0.01 53 1014.4
20260503214213 62 163 3.0 7.0 0.00 0.01 0.01 52 1014.5
20260503213226 62 214 3.0 10.0 0.00 0.01 0.01 52 1014.4
20260503213042 62 212 3.0 9.0 0.00 0.01 0.01 53 1014.3
20260503212220 62 222 3.0 8.0 0.00 0.01 0.01 53 1014.4
20260503211534 62 201 2.0 8.0 0.00 0.01 0.01 54 1014.2
20260503211221 62 201 3.0 8.0 0.00 0.01 0.01 54 1014.4
20260503210108 62 237 1.0 7.0 0.00 0.01 0.01 54 1014.3
20260503205213 62 212 2.0 4.0 0.00 0.01 0.01 54 1014.4
20260503204554 62 219 2.0 8.0 0.00 0.01 0.01 53 1014.3
20260503204221 62 265 2.0 4.0 0.00 0.01 0.01 54 1014.4
20260503203219 62 225 3.0 6.0 0.00 0.01 0.01 54 1014.5
20260503203007 61 229 2.0 5.0 0.00 0.01 0.01 54 1014.4
20260503202215 61 187 1.0 4.0 0.00 0.01 0.01 56 1014.5
20260503201514 61 243 0.0 3.0 0.00 0.01 0.01 56 1014.3
20260503200214 62 217 1.0 4.0 0.00 0.01 0.01 56 1014.5
20260503200111 61 243 0.0 3.0 0.00 0.01 0.01 56 1014.4
20260503194519 62 144 1.0 5.0 0.00 0.01 0.01 54 1014.4
20260503194226 62 149 2.0 6.0 0.00 0.01 0.01 53 1014.5
20260503193217 63 242 2.0 5.0 0.00 0.01 0.01 52 1014.4
20260503193037 63 193 1.0 5.0 0.00 0.01 0.01 51 1014.2